Home   Weather   Safed   Past weeks

Flag for Israel Past Weather in Safed, Israel — Yesterday and Last 2 Weeks

Now
55 °F

Clear.


Feels Like: 55 °F
Forecast: 36 / 50 °F
Wind: 5 mph from East

Location: Beirut Airport

Current Time: Feb 20, 2017 at 10:21:21 pm

Latest Report: Feb 20, 2017 at 10:00 pm


Visibility: 10 mi

Pressure: 30.18 "Hg (27.52 "Hg at 772m altitude)

Humidity: 44%

Dew Point: 34 °F

Location of SafedLocation

Past Weather in Safed — Graph

°F

Safed Temperature Yesterday

Maximum temperature yesterday: 63 °F (at 12:00 pm)
Minimum temperature yesterday: 50 °F (at 12:00 am)
Average temperature yesterday: 56 °F

High & Low Weather Summary for the Past Weeks

 TemperatureHumidityPressure
High73 °F (Feb 8, 11:00 am)88% (Feb 13, 10:00 am)30.45 "Hg (Feb 13, 10:00 am)
Low46 °F (Feb 15, 4:00 am)15% (Feb 8, 8:00 am)29.80 "Hg (Feb 8, 12:00 pm)
Average56 °F55%30.14 "Hg
* Reported Feb 5 9:00 pm — Feb 20 9:00 pm, Safed, Weather by CustomWeather, © 2017

Note: Actual official high and low records may vary slightly from our data, if they occured in-between our weather recording intervals... More about our weather records

Advertising

Safed Weather History for the Previous 24 Hours

Scroll right to see more
 ConditionsComfort  
Time TempWeatherWind HumidityBarometerVisibility
9:00 pm
Mon, Feb 20
57 °FClear.5 mph41%30.18 "Hg10 mi
7:00 pm59 °FPassing clouds.3 mph51%30.18 "HgN/A
6:00 pm61 °FPassing clouds.8 mph48%30.15 "HgN/A
5:00 pm61 °FPassing clouds.9 mph45%30.15 "HgN/A
4:00 pm63 °FPassing clouds.10 mph37%30.15 "HgN/A
3:00 pm64 °FPassing clouds.12 mph37%30.18 "HgN/A
2:00 pm63 °FSunny.9 mph42%30.18 "Hg10 mi
1:00 pm63 °FSunny.6 mph52%30.21 "Hg10 mi
12:00 pm63 °FPassing clouds.6 mph45%30.21 "HgN/A
11:00 am61 °FPassing clouds.5 mph39%30.24 "HgN/A
10:00 am61 °FPassing clouds.5 mph45%30.24 "HgN/A
9:00 am59 °FSunny.3 mph39%30.24 "Hg10 mi
8:00 am55 °FSunny.2 mph31%30.24 "HgN/A
7:00 am50 °FSunny.2 mph37%30.24 "Hg10 mi
6:00 am50 °FClear.3 mph35%30.24 "HgN/A
5:00 am50 °FPassing clouds.2 mph35%30.24 "HgN/A
4:00 am50 °FPassing clouds.3 mph37%30.24 "HgN/A
3:00 am52 °FPassing clouds.2 mph38%30.24 "HgN/A
2:00 am52 °FPassing clouds.3 mph38%30.27 "HgN/A
1:00 am54 °FPassing clouds.5 mph38%30.27 "HgN/A
12:00 am54 °FPassing clouds.5 mph41%30.30 "HgN/A
11:00 pm
Sun, Feb 19
54 °FPassing clouds.5 mph41%30.30 "HgN/A
10:00 pm54 °FPassing clouds.3 mph41%30.30 "HgN/A
Weather by CustomWeather, © 2017

See weather overviewHow to use our weather pages